Date String (YYYY-MM-DD hh:mm:ss) UTC,Instrument flags,Ambient pressure (hPa),Sample flow (lpm),Bypass flow (lpm),Sample temperature (°C),Ambient temperature (°C),ASC tube jacket temperature (°C),LED temperature (°C),Box temperature (°C),Sample RH (%),Span deviation,Mass concentration (μg/m³),Mass concentration (μg/m³),Mass concentration (μg/m³)
DateTimeUTC,F1_M11,P_M11,Q1_M11,Q2_M11,T1_M11,T2_M11,T3_M11,T4_M11,T5_M11,U1_M11,ZSPAN_M11,X0_M11,X2_M11,X1_M11
2022-01-25 14:00:00,,0826.4,5.01,0.00,22.3,21.6,00.0,31.4,24.0,15.3,0000.0,0004.50,0003.26,0002.91
2022-01-25 14:01:00,,0826.4,4.99,0.00,22.3,21.5,00.0,31.4,24.0,15.3,0000.0,0004.80,0003.27,0002.86
2022-01-25 14:02:00,,0826.4,4.99,0.00,22.3,21.5,00.0,31.4,23.9,15.3,0000.0,0005.17,0003.26,0002.80
2022-01-25 14:03:00,,0826.5,5.00,0.00,22.2,21.5,00.0,31.3,23.9,15.4,0000.0,0005.47,0003.23,0002.73
2022-01-25 14:04:00,,0826.5,5.01,0.00,22.2,21.4,00.0,31.3,23.9,15.4,0000.0,0006.03,0003.23,0002.68
2022-01-25 14:05:00,,0826.5,4.99,0.00,22.2,21.4,00.0,31.3,23.9,15.4,0000.0,0006.37,0003.23,0002.63
2022-01-25 14:06:00,,0826.5,5.00,0.00,22.2,21.4,00.0,31.3,23.9,15.4,0000.0,0006.38,0003.20,0002.55
2022-01-25 14:07:00,,0826.5,5.01,0.00,22.1,21.4,00.0,31.3,23.8,15.5,0000.0,0006.26,0003.12,0002.44
2022-01-25 14:08:00,,0826.5,4.99,0.00,22.1,21.5,00.0,31.3,23.9,15.5,0000.0,0006.06,0002.99,0002.34
2022-01-25 14:09:00,,0826.5,5.00,0.00,22.2,22.2,00.0,31.3,24.1,15.4,0000.0,0005.76,0002.85,0002.25
2022-01-25 14:10:00,,0826.5,5.00,0.00,22.4,23.0,00.0,31.3,24.3,15.3,0000.0,0005.64,0002.74,0002.15
2022-01-25 14:11:00,,0826.5,5.00,0.00,22.5,23.2,00.0,31.4,24.5,15.2,0000.0,0005.40,0002.62,0002.06
2022-01-25 14:12:00,,0826.5,5.01,0.00,22.5,23.0,00.0,31.4,24.5,15.1,0000.0,0004.77,0002.42,0001.96
2022-01-25 14:13:00,,0826.5,5.01,0.00,22.6,22.7,00.0,31.4,24.5,15.1,0000.0,0004.22,0002.27,0001.87
2022-01-25 14:14:00,,0826.6,5.00,0.00,22.5,22.5,00.0,31.4,24.4,15.1,0000.0,0003.78,0002.16,0001.79
2022-01-25 14:15:00,,0826.6,4.99,0.00,22.5,22.3,00.0,31.4,24.3,15.2,0000.0,0003.05,0002.03,0001.72
2022-01-25 14:16:00,,0826.6,5.00,0.00,22.5,22.2,00.0,31.4,24.3,15.2,0000.0,0002.57,0001.90,0001.65
2022-01-25 14:17:00,,0826.6,5.01,0.00,22.5,22.1,00.0,31.4,24.2,15.2,0000.0,0002.45,0001.84,0001.62
2022-01-25 14:18:00,,0826.6,5.00,0.00,22.5,22.0,00.0,31.4,24.2,15.2,0000.0,0002.50,0001.83,0001.61
2022-01-25 14:19:00,,0826.6,5.00,0.00,22.4,21.9,00.0,31.4,24.2,15.2,0000.0,0002.47,0001.82,0001.61
2022-01-25 14:20:00,,0826.6,5.00,0.00,22.4,21.8,00.0,31.4,24.1,15.2,0000.0,0002.39,0001.79,0001.61
2022-01-25 14:21:00,,0826.6,5.01,0.00,22.3,21.8,00.0,31.4,24.0,15.2,0000.0,0002.33,0001.76,0001.61
2022-01-25 14:22:00,,0826.6,4.99,0.00,22.3,21.7,00.0,31.4,23.9,15.2,0000.0,0002.35,0001.74,0001.58
2022-01-25 14:23:00,,0826.6,4.99,0.00,22.2,21.6,00.0,31.4,23.9,15.3,0000.0,0002.36,0001.71,0001.55
2022-01-25 14:24:00,,0826.7,5.01,0.00,22.2,21.5,00.0,31.3,23.9,15.4,0000.0,0002.34,0001.67,0001.51
2022-01-25 14:25:00,,0826.7,5.01,0.00,22.2,21.4,00.0,31.3,23.8,15.4,0000.0,0002.51,0001.65,0001.48
2022-01-25 14:26:00,,0826.7,4.99,0.00,22.1,21.4,00.0,31.3,23.8,15.4,0000.0,0002.64,0001.60,0001.43
2022-01-25 14:27:00,,0826.7,5.00,0.00,22.1,21.4,00.0,31.3,23.7,15.5,0000.0,0002.66,0001.56,0001.39
2022-01-25 14:28:00,,0826.8,5.00,0.00,22.1,21.6,00.0,31.3,23.8,15.4,0000.0,0002.65,0001.51,0001.34
2022-01-25 14:29:00,,0826.8,5.00,0.00,22.2,22.4,00.0,31.3,24.1,15.3,0000.0,0002.45,0001.43,0001.27
2022-01-25 14:30:00,,0826.9,5.00,0.00,22.4,23.1,00.0,31.3,24.3,15.2,0000.0,0002.36,0001.36,0001.21
2022-01-25 14:31:00,,0826.8,5.00,0.00,22.5,23.0,00.0,31.3,24.4,15.1,0000.0,0002.30,0001.30,0001.15
2022-01-25 14:32:00,,0826.8,5.01,0.00,22.5,22.8,00.0,31.4,24.4,15.1,0000.0,0002.21,0001.23,0001.09
2022-01-25 14:33:00,,0826.8,5.01,0.00,22.4,22.5,00.0,31.4,24.3,15.1,0000.0,0002.00,0001.16,0001.05
2022-01-25 14:34:00,,0826.8,5.00,0.00,22.4,22.2,00.0,31.4,24.1,15.1,0000.0,0001.93,0001.12,0001.01
2022-01-25 14:35:00,,0826.8,5.00,0.00,22.3,22.0,00.0,31.3,24.0,15.1,0000.0,0001.91,0001.09,0000.97
2022-01-25 14:36:00,,0826.9,5.00,0.00,22.3,21.8,00.0,31.3,23.9,15.2,0000.0,0001.71,0001.03,0000.92
2022-01-25 14:37:00,,0826.9,5.00,0.00,22.2,21.7,00.0,31.3,23.8,15.2,0000.0,0001.70,0000.98,0000.87
2022-01-25 14:38:00,,0827.0,5.02,0.00,22.2,21.5,00.0,31.3,23.8,15.2,0000.0,0001.64,0000.95,0000.83
2022-01-25 14:39:00,,0827.0,5.01,0.00,22.1,21.5,00.0,31.3,23.8,15.2,0000.0,0001.58,0000.91,0000.80
2022-01-25 14:40:00,,0827.0,4.99,0.00,22.1,21.4,00.0,31.2,23.7,15.2,0000.0,0001.55,0000.88,0000.78
2022-01-25 14:41:00,,0827.0,4.99,0.00,22.1,21.3,00.0,31.2,23.7,15.3,0000.0,0001.59,0000.88,0000.76
2022-01-25 14:42:00,,0827.0,5.01,0.00,22.0,21.3,00.0,31.2,23.6,15.3,0000.0,0001.57,0000.87,0000.75
2022-01-25 14:43:00,,0827.1,4.99,0.00,22.0,21.3,00.0,31.2,23.6,15.3,0000.0,0002.24,0000.89,0000.76
2022-01-25 14:44:00,,0827.1,5.00,0.00,22.0,21.6,00.0,31.2,23.6,15.3,0000.0,0002.31,0000.92,0000.78
2022-01-25 14:45:00,,0827.1,5.00,0.00,22.1,22.4,00.0,31.2,23.9,15.2,0000.0,0002.35,0000.96,0000.82
2022-01-25 14:46:00,,0827.1,5.00,0.00,22.2,23.0,00.0,31.2,24.2,15.0,0000.0,0002.36,0000.99,0000.86
2022-01-25 14:47:00,,0827.3,4.99,0.00,22.3,22.9,00.0,31.3,24.3,15.0,0000.0,0002.39,0001.04,0000.91
2022-01-25 14:48:00,,0827.5,5.01,0.00,22.3,22.6,00.0,31.3,24.2,14.9,0000.0,0002.20,0001.08,0000.97
2022-01-25 14:49:00,,0827.5,5.00,0.00,22.3,22.4,00.0,31.3,24.1,14.9,0000.0,0002.19,0001.12,0001.02
2022-01-25 14:50:00,,0827.3,4.98,0.00,22.3,22.1,00.0,31.3,24.0,14.9,0000.0,0002.23,0001.17,0001.07
2022-01-25 14:51:00,,0827.3,5.01,0.00,22.2,21.9,00.0,31.2,24.0,14.9,0000.0,0002.26,0001.22,0001.12
2022-01-25 14:52:00,,0827.4,4.99,0.00,22.2,21.8,00.0,31.2,23.9,14.9,0000.0,0002.35,0001.30,0001.18
2022-01-25 14:53:00,,0827.2,5.01,0.00,22.2,21.6,00.0,31.2,23.8,15.0,0000.0,0002.38,0001.35,0001.24
2022-01-25 14:54:00,,0827.2,5.01,0.00,22.1,21.5,00.0,31.2,23.7,15.0,0000.0,0001.84,0001.39,0001.28
2022-01-25 14:55:00,,0827.3,5.00,0.00,22.0,21.4,00.0,31.2,23.6,15.0,0000.0,0001.75,0001.42,0001.32
2022-01-25 14:56:00,,0827.4,4.99,0.00,22.0,21.3,00.0,31.2,23.6,15.0,0000.0,0001.74,0001.43,0001.34
2022-01-25 14:57:00,,0827.4,5.00,0.00,21.9,21.2,00.0,31.1,23.5,15.0,0000.0,0001.83,0001.48,0001.37
2022-01-25 14:58:00,,0827.4,4.99,0.00,21.9,21.1,00.0,31.1,23.4,15.1,0000.0,0001.92,0001.52,0001.39
2022-01-25 14:59:00,,0827.4,5.01,0.00,21.9,21.5,00.0,31.1,23.5,15.0,0000.0,0001.93,0001.53,0001.40
